Home   Weather   Lisbon   Past weeks

Flag for Portugal Past Weather in Lisbon, Portugal — Yesterday and Last 2 Weeks

61 °F

Passing clouds.

Feels Like: 61 °F
Forecast: 63 / 71 °F
Wind: 10 mph from Southeast

Location: Lisbon Portela Airport

Current Time: Oct 24, 2016 at 9:11:54 PM

Latest Report: Oct 24, 2016 at 8:30 PM

Visibility: N/A

Pressure: 29.71 "Hg

Humidity: 100%

Dew Point: 61 °F

Location of LisbonLocation

Past Weather in Lisbon — Graph


Lisbon Temperature Yesterday

Maximum temperature yesterday: 64 °F (at 10:30 AM)
Minimum temperature yesterday: 57 °F (at 10:00 PM)
Average temperature yesterday: 61 °F

High & Low Weather Summary for the Past Weeks

High79 °F (Oct 18, 2:30 PM)100% (Oct 11, 10:00 PM)30.21 "Hg (Oct 11, 10:00 PM)
Low54 °F (Oct 10, 8:00 AM)44% (Oct 19, 2:30 PM)29.56 "Hg (Oct 23, 12:00 AM)
Average63 °F83%29.89 "Hg
* Reported Oct 9 8:00 PM — Oct 24 8:00 PM, Lisbon, Weather by CustomWeather, © 2016

Note: Actual official high and low records may vary slightly from our data, if they occured in-between our weather recording intervals... More about our weather records


Lisbon Weather History for the Previous 24 Hours

Scroll right to see more
Time TempWeatherWind HumidityBarometerVisibility
8:00 PM
Mon, Oct 24
61 °FLight rain. Passing clouds.10 mph94%29.71 "HgN/A
7:30 PM61 °FLight rain. Passing clouds.12 mph94%29.71 "HgN/A
7:00 PM61 °FLight rain. Passing clouds.12 mph94%29.68 "HgN/A
6:30 PM61 °FRain. Passing clouds.10 mph94%29.68 "HgN/A
6:00 PM63 °FLight rain. Passing clouds.10 mph88%29.68 "HgN/A
5:30 PM63 °FScattered showers. Scattered clouds.9 mph88%29.68 "HgN/A
5:00 PM61 °FLight rain. Partly sunny.10 mph94%29.68 "HgN/A
4:30 PM61 °FLight rain. Scattered clouds.6 mph94%29.68 "HgN/A
4:00 PM63 °FLight rain. Scattered clouds.3 mph88%29.71 "HgN/A
3:30 PM64 °FLight rain. Partly sunny.9 mph78%29.71 "Hg6 mi
3:00 PM66 °FSprinkles. Scattered clouds.10 mph73%29.68 "HgN/A
2:30 PM64 °FSprinkles. Passing clouds.10 mph78%29.68 "HgN/A
2:00 PM64 °FPassing clouds.12 mph78%29.68 "HgN/A
1:30 PM64 °FScattered clouds.13 mph78%29.71 "HgN/A
1:00 PM64 °FPartly sunny.12 mph78%29.71 "HgN/A
12:30 PM64 °FScattered clouds.3 mph78%29.71 "HgN/A
12:00 PM64 °FScattered clouds.13 mph78%29.71 "HgN/A
11:30 AM63 °FScattered clouds.8 mph88%29.71 "HgN/A
11:00 AM61 °FScattered clouds.9 mph88%29.71 "HgN/A
10:30 AM59 °FScattered clouds.8 mph94%29.71 "HgN/A
10:00 AM59 °FPartly sunny.8 mph94%29.71 "HgN/A
9:30 AM57 °FPartly sunny.7 mph94%29.71 "HgN/A
9:00 AM57 °FPartly sunny.7 mph94%29.68 "HgN/A
8:30 AM55 °FScattered clouds.6 mph100%29.68 "HgN/A
8:00 AM55 °FScattered clouds.7 mph100%29.68 "HgN/A
7:30 AM55 °FPassing clouds.7 mph100%29.68 "HgN/A
7:00 AM55 °FPassing clouds.6 mph100%29.65 "HgN/A
6:30 AM55 °FPassing clouds.5 mph100%29.68 "HgN/A
6:00 AM55 °FPassing clouds.5 mph94%29.65 "HgN/A
5:30 AM55 °FPassing clouds.5 mph94%29.65 "HgN/A
5:00 AM55 °FPassing clouds.3 mph94%29.65 "HgN/A
4:30 AM57 °FPassing clouds.7 mph88%29.65 "HgN/A
4:00 AM55 °FPassing clouds.6 mph100%29.65 "HgN/A
3:30 AM57 °FPassing clouds.12 mph88%29.65 "HgN/A
3:00 AM57 °FSprinkles. Passing clouds.6 mph94%29.68 "HgN/A
2:30 AM57 °FPassing clouds.8 mph94%29.68 "HgN/A
2:00 AM59 °FPassing clouds.5 mph88%29.68 "HgN/A
1:30 AM59 °FScattered showers. Passing clouds.7 mph88%29.68 "HgN/A
1:00 AM59 °FPassing clouds.6 mph88%29.68 "HgN/A
12:30 AM59 °FPassing clouds.6 mph88%29.68 "HgN/A
12:00 AM57 °FPassing clouds.5 mph94%29.65 "HgN/A
11:30 PM
Sun, Oct 23
57 °FPassing clouds.2 mph88%29.65 "HgN/A
11:00 PM57 °FPassing clouds.5 mph88%29.68 "HgN/A
10:30 PM57 °FPassing clouds.7 mph88%29.65 "HgN/A
10:00 PM57 °FSprinkles. Passing clouds.12 mph82%29.65 "HgN/A
9:30 PM59 °FThundershowers. Passing clouds.12 mph88%29.65 "HgN/A
9:00 PM59 °FPassing clouds.8 mph82%29.65 "HgN/A
Weather by CustomWeather, © 2016

See weather overviewHow to use our weather pages